| time (UTC) | temp C | wind direction | speed KPH | gust KPH | rain 1hr cm | rain 24hr cm | rain mn cm | humidity % | barometer mb |
| 20260504044603 | 7 | 0 | 0.0 | 0.0 | 0.00 | 0.00 | 0.00 | 65 | 1010.8 |
| 20260504043058 | 7 | 0 | 0.0 | 0.0 | 0.00 | 0.00 | 0.00 | 63 | 1010.8 |
| 20260504041558 | 7 | 0 | 0.0 | 0.0 | 0.00 | 0.00 | 0.00 | 61 | 1010.4 |
| 20260504040105 | 7 | 0 | 0.0 | 0.0 | 0.00 | 0.00 | 0.00 | 61 | 1010.4 |
| 20260504034601 | 8 | 0 | 0.0 | 0.0 | 0.00 | 0.00 | 0.00 | 63 | 1010.3 |
| 20260504033126 | 8 | 0 | 0.0 | 0.0 | 0.00 | 0.00 | 0.00 | 56 | 1010.4 |
| 20260504031557 | 8 | 0 | 0.0 | 0.0 | 0.00 | 0.00 | 0.00 | 61 | 1010.3 |
| 20260504030056 | 8 | 0 | 0.0 | 0.0 | 0.00 | 0.00 | 0.00 | 56 | 1010.3 |
| 20260504024556 | 8 | 0 | 0.0 | 0.0 | 0.00 | 0.00 | 0.00 | 55 | 1010.3 |
| 20260504023102 | 8 | 0 | 0.0 | 0.0 | 0.00 | 0.00 | 0.00 | 59 | 1010.3 |
| 20260504021556 | 8 | 0 | 0.0 | 0.0 | 0.00 | 0.00 | 0.00 | 61 | 1010.3 |
| 20260504020100 | 9 | 0 | 0.0 | 0.0 | 0.00 | 0.00 | 0.00 | 59 | 1010.4 |
| 20260504014555 | 10 | 0 | 0.0 | 0.0 | 0.00 | 0.00 | 0.00 | 57 | 1010.4 |
| 20260504013107 | 10 | 0 | 0.0 | 0.0 | 0.00 | 0.00 | 0.00 | 53 | 1010.1 |
| 20260504011556 | 10 | 0 | 0.0 | 0.0 | 0.00 | 0.00 | 0.00 | 52 | 1010.0 |
| 20260504010111 | 11 | 0 | 0.0 | 0.0 | 0.00 | 0.00 | 0.00 | 48 | 1009.7 |
| 20260504004619 | 12 | 0 | 0.0 | 0.0 | 0.00 | 0.00 | 0.00 | 49 | 1009.6 |
| 20260504003054 | 12 | 0 | 0.0 | 0.0 | 0.00 | 0.00 | 0.00 | 44 | 1009.5 |
| 20260504001604 | 13 | 0 | 0.0 | 0.0 | 0.00 | 0.00 | 0.00 | 39 | 1009.2 |
| 20260504000055 | 13 | 0 | 0.0 | 0.0 | 0.00 | 0.00 | 0.00 | 37 | 1008.8 |
| 20260503234556 | 14 | 0 | 0.0 | 6.4 | 0.00 | 0.00 | 0.00 | 35 | 1008.6 |
| 20260503233059 | 15 | 0 | 0.0 | 11.3 | 0.00 | 0.00 | 0.00 | 33 | 1008.5 |
| 20260503231557 | 15 | 0 | 1.6 | 22.5 | 0.00 | 0.00 | 0.00 | 32 | 1008.2 |
| 20260503224554 | 15 | 252 | 0.0 | 22.5 | 0.00 | 0.00 | 0.00 | 30 | 1008.2 |
| 20260503223059 | 15 | 0 | 4.8 | 22.5 | 0.00 | 0.00 | 0.00 | 31 | 1008.1 |
| 20260503221555 | 15 | 291 | 1.6 | 14.5 | 0.00 | 0.00 | 0.00 | 30 | 1008.1 |
| 20260503220054 | 15 | 336 | 1.6 | 24.1 | 0.00 | 0.00 | 0.00 | 30 | 1008.1 |
| 20260503214554 | 15 | 311 | 6.4 | 20.9 | 0.00 | 0.00 | 0.00 | 29 | 1008.2 |
| 20260503213106 | 15 | 282 | 4.8 | 22.5 | 0.00 | 0.00 | 0.00 | 29 | 1008.2 |
| 20260503211553 | 15 | 0 | 3.2 | 20.9 | 0.00 | 0.00 | 0.00 | 30 | 1008.1 |
| 20260503210104 | 15 | 304 | 4.8 | 20.9 | 0.00 | 0.00 | 0.00 | 31 | 1008.1 |
| 20260503204607 | 15 | 307 | 3.2 | 22.5 | 0.00 | 0.00 | 0.00 | 29 | 1008.2 |
| 20260503203104 | 15 | 319 | 6.4 | 24.1 | 0.00 | 0.00 | 0.00 | 30 | 1008.1 |
| 20260503201558 | 15 | 134 | 4.8 | 25.7 | 0.00 | 0.00 | 0.00 | 30 | 1008.1 |
| 20260503194558 | 14 | 0 | 3.2 | 17.7 | 0.00 | 0.00 | 0.00 | 32 | 1008.5 |
| 20260503193127 | 14 | 0 | 1.6 | 25.7 | 0.00 | 0.00 | 0.00 | 35 | 1008.6 |
| 20260503191620 | 13 | 310 | 6.4 | 24.1 | 0.00 | 0.00 | 0.00 | 33 | 1008.7 |
| 20260503190054 | 13 | 272 | 3.2 | 24.1 | 0.00 | 0.00 | 0.00 | 34 | 1009.0 |
| 20260503184559 | 13 | 273 | 3.2 | 20.9 | 0.00 | 0.00 | 0.00 | 34 | 1009.0 |
| 20260503183114 | 13 | 0 | 6.4 | 24.1 | 0.00 | 0.00 | 0.00 | 35 | 1009.1 |
| 20260503181555 | 12 | 0 | 3.2 | 24.1 | 0.00 | 0.00 | 0.00 | 36 | 1009.1 |
| 20260503180059 | 12 | 0 | 3.2 | 19.3 | 0.00 | 0.00 | 0.00 | 38 | 1009.3 |
| 20260503174557 | 11 | 342 | 0.0 | 27.4 | 0.00 | 0.00 | 0.00 | 41 | 1009.3 |
| 20260503173116 | 11 | 0 | 1.6 | 22.5 | 0.00 | 0.00 | 0.00 | 41 | 1009.5 |
| 20260503171554 | 11 | 243 | 6.4 | 29.0 | 0.00 | 0.00 | 0.00 | 42 | 1009.6 |
| 20260503120124 | 6 | 292 | 0.0 | 29.0 | 0.00 | 0.00 | 0.00 | 60 | 1010.1 |
| 20260503100104 | 6 | 0 | 0.0 | 8.0 | 0.00 | 0.00 | 0.00 | 60 | 1009.1 |
| 20260503081555 | 7 | 0 | 3.2 | 14.5 | 0.00 | 0.00 | 0.00 | 56 | 1008.8 |
| 20260503071557 | 7 | 0 | 0.0 | 0.0 | 0.00 | 0.00 | 0.00 | 56 | 1008.6 |
| 20260503070106 | 7 | 0 | 0.0 | 4.8 | 0.00 | 0.00 | 0.00 | 55 | 1008.8 |